[[{"header":{"parameterUnit":"m.s-1","parameterCategory":1,"la1":30.2991,"la2":30.254,"lo1":-89.0895,"lo2":-89.0444,"dy":0.0017,"dx":0.0017,"nx":28,"ny":28,"refTime":"2023-11-03T09:00:00:Z","depth":0,"parameterNumber":2,"parameterNumberName":"U-component_of_WINDS"},"data":[0,0,0,0,0,0,0,0,0,0,0,0,0,0,0,0,0,0,0,0,0,0,0,0,0,0,0,0,0,0,0,0,0,0,0,0,0,0,0,0,0,0,0,0,0,0,0,0,0,0,0,0,0,0,0,0,0,0,-3.4067,-3.4067,0,-3.4044,-3.4043,-3.4043,-3.3898,-3.3894,-3.3891,-3.3887,-3.3866,-3.3868,-3.3871,0,0,0,0,0,0,0,0,0,0,0,0,0,-3.3989,-3.3991,-3.4067,-3.4067,-3.4067,-3.4044,-3.4043,-3.4043,-3.3898,-3.3894,-3.389,-3.3886,-3.3865,-3.3868,-3.3871,0,0,0,0,0,0,0,0,0,0,0,0,0,-3.4,-3.3992,-3.4068,-3.3992,-3.3985,-3.4044,-3.4043,-3.4043,-3.3899,-3.3894,-3.3889,-3.3884,-3.3864,-3.3868,-3.3872,-3.4003,0,0,-3.3884,-3.3886,0,0,0,0,0,0,0,0,-3.4,-3.4003,-3.4003,-3.3997,-3.3989,-3.3968,-3.4008,-3.403,-3.3901,-3.3932,-3.3887,-3.3881,-3.3904,-3.3905,-3.3912,-3.4002,-3.4001,-3.3885,-3.3887,-3.3889,-3.389,0,0,0,0,0,0,0,-3.3999,-3.4003,-3.4058,-3.4003,-3.3995,-3.396,-3.3955,-3.4011,-3.3948,-3.3929,-3.3918,-3.3917,-3.39,-3.3908,-3.391,-3.4,-3.3884,-3.3888,-3.3891,-3.3892,-3.4194,-3.4199,0,0,0,0,0,0,-3.4009,-3.4004,-3.4059,-3.4057,-3.3982,-3.3965,-3.396,-3.398,-3.3947,-3.3937,-3.3922,-3.391,-3.3904,-3.3906,-3.3909,-3.4058,-3.3889,-3.3893,-3.3895,-3.4188,-3.4195,-3.4201,0,0,0,0,0,0,-3.4008,-3.4015,-3.406,-3.4028,-3.4031,-3.3972,-3.3996,-3.3983,-3.3991,-3.3942,-3.393,-3.3942,-3.39,-3.3903,-3.398,-3.4055,-3.3894,-3.3898,-3.4182,-3.4191,-3.4198,-3.4359,0,0,0,0,0,0,-3.4006,-3.4016,-3.4064,-3.403,-3.4033,-3.4131,-3.4,-3.3986,-3.3998,-3.3983,-3.3958,-3.3949,-3.3896,-3.3974,-3.3984,-3.4058,-3.3901,-3.4175,-3.4186,-3.4196,-3.4347,-3.4372,-3.4393,0,0,0,0,0,-3.4004,-3.4112,-3.4068,-3.4075,-3.4093,-3.4136,-3.4137,-3.4074,-3.4005,-3.4054,-3.4022,-3.3949,-3.4046,-3.3984,-3.3993,-3.407,-3.417,-3.4183,-3.4195,-3.4336,-3.4367,-3.4393,0,0,0,0,0,0,-3.4158,-3.4106,-3.4056,-3.4156,-3.4151,-3.4111,-3.417,-3.4109,-3.4124,-3.411,-3.4031,-3.4027,-3.4115,-3.41,-3.4031,-3.4193,-3.4095,-3.4111,-3.42,-3.4228,-3.4251,-3.4253,-3.3905,0,0,0,0,0,-3.4203,-3.4242,-3.4194,-3.4287,-3.4287,-3.423,-3.4246,-3.4197,-3.419,-3.4187,-3.416,-3.4156,-3.4185,-3.4206,-3.423,-3.4344,-3.4336,-3.4401,-3.4425,-3.4444,-3.4458,-3.4515,-3.4544,-3.4243,-3.4242,-3.4242,0,0,-3.4298,-3.4274,-3.4303,-3.4317,-3.4308,-3.435,-3.4229,-3.4279,-3.4309,-3.4195,-3.4264,-3.4245,-3.4235,-3.4331,-3.4371,-3.4321,-3.4539,-3.446,-3.4476,-3.4479,-3.4531,-3.456,-3.4585,-3.4251,-3.4249,-3.4248,0,0,-3.4491,-3.4478,-3.4552,-3.4545,-3.4531,-3.4492,-3.451,-3.4479,-3.4461,-3.453,-3.4445,-3.448,-3.4532,-3.4528,-3.4533,-3.4724,-3.4658,-3.4734,-3.4856,-3.4913,-3.4937,-3.4957,-3.5024,-3.5049,-3.4748,-3.4749,-3.4749,0,-3.461,-3.4669,-3.4598,-3.4653,-3.4661,-3.4559,-3.4634,-3.463,-3.4627,-3.4635,-3.4578,-3.464,-3.4627,-3.4719,-3.4765,-3.4773,-3.4791,-3.4736,-3.4939,-3.4959,-3.4977,-3.504,-3.5065,-3.4758,-3.4757,-3.4756,-3.4755,0,-3.4815,-3.4858,-3.492,-3.4916,-3.4932,-3.4997,-3.4936,-3.4961,-3.4911,-3.4878,-3.4949,-3.4929,-3.4946,-3.4965,-3.4918,-3.505,-3.5019,-3.4953,-3.4852,-3.5016,-3.5074,-3.5097,-3.4771,-3.4768,-3.4765,-3.4763,0,0,-3.5105,-3.5061,-3.5085,-3.5081,-3.5058,-3.509,-3.515,-3.5166,-3.5188,-3.5189,-3.5237,-3.5283,-3.522,-3.5226,-3.5177,-3.5228,-3.5378,-3.5154,-3.5152,-3.5195,-3.5522,-3.5572,-3.5601,-3.5335,-3.5339,-3.5343,-3.5522,0,-3.5289,-3.5387,-3.5325,-3.5433,-3.5471,-3.5374,-3.5426,-3.5418,-3.5389,-3.5417,-3.5385,-3.5418,-3.5334,-3.5337,-3.5382,-3.5351,-3.5443,-3.5337,-3.5379,-3.5381,-3.5382,-3.5631,-3.5683,-3.5854,-3.5545,-3.5548,-3.5551,0,-3.5516,-3.5524,-3.5637,-3.5605,-3.5618,-3.5666,-3.5675,-3.5703,-3.5692,-3.5667,-3.5673,-3.5612,-3.5669,-3.5571,-3.5648,-3.5577,-3.5591,-3.5578,-3.5583,-3.5583,-3.5475,-3.5637,-3.5907,-3.5932,-3.5586,-3.5583,-3.5581,0,-3.5714,-3.5754,-3.5825,-3.5825,-3.5791,-3.5826,-3.5814,-3.5797,-3.5811,-3.5819,-3.5827,-3.5843,-3.5851,-3.5865,-3.581,-3.5744,-3.5894,-3.5792,-3.5875,-3.5876,-3.5909,-3.5908,-3.6185,-3.5921,-3.5921,-3.592,-3.592,0,-3.5924,-3.5996,-3.5913,-3.5957,-3.6035,-3.5963,-3.6042,-3.6019,-3.6005,-3.6043,-3.5962,-3.6,-3.5924,-3.5955,-3.5912,-3.5982,-3.5987,-3.5968,-3.5956,-3.5975,-3.5977,-3.5982,-3.5968,-3.5927,-3.5926,-3.5924,-3.5923,0,-3.6158,-3.6105,-3.6176,-3.6137,-3.6129,-3.6188,-3.6154,-3.6194,-3.6159,-3.6208,-3.6216,-3.6161,-3.6193,-3.6139,-3.6164,-3.6135,-3.6232,-3.6202,-3.6235,-3.6226,-3.6311,-3.6304,-3.66,-3.6634,-3.6351,-3.6353,-3.6356,0,-3.6295,-3.6348,-3.6314,-3.6332,-3.6324,-3.6356,-3.6368,-3.63,-3.6317,-3.6307,-3.6348,-3.6372,-3.6387,-3.6442,-3.6406,-3.6424,-3.6393,-3.6496,-3.6396,-3.6413,-3.6393,-3.639,-3.6394,-3.6516,-3.6519,-3.6522,-3.6525,0,-3.6544,-3.6515,-3.6535,-3.6546,-3.6563,-3.6569,-3.6569,-3.659,-3.6517,-3.654,-3.657,-3.6582,-3.6607,-3.6632,-3.6642,-3.6629,-3.6566,-3.6556,-3.6576,-3.6596,-3.6612,-3.6603,-3.629,-3.655,-3.6547,-3.6545,-3.6544,-3.6543,-3.6732,-3.6774,-3.6755,-3.6781,-3.6773,-3.6775,-3.6809,-3.6778,-3.6802,-3.6815,-3.6774,-3.6814,-3.6801,-3.6807,-3.6801,-3.6832,-3.6786,-3.6816,-3.6823,-3.6831,-3.6844,-3.6609,-3.6834,-3.6833,-3.6832,-3.6831,-3.6831,0,-3.6975,-3.6958,-3.6982,-3.6984,-3.7004,-3.694,-3.6937,-3.6958,-3.6994,-3.6986,-3.7003,-3.7037,-3.7061,-3.7026,-3.7044,-3.7075,-3.7046,-3.7082,-3.7078,-3.7076,-3.6884,-3.6864,-3.7105,-3.7105,-3.7105,-3.7105,-3.7104,-3.7104,-3.7104,-3.717,-3.7139,-3.7201,-3.7183,-3.722,-3.7224,-3.7225,-3.7218,-3.726,-3.7278,-3.7255,-3.7237,-3.7252,-3.7271,-3.726,-3.727,-3.7316,-3.7296,-3.7117,-3.709,-3.7064,-3.7045,-3.7319,-3.732,-3.7484,-3.7486,-3.7487]},{"header":{"parameterUnit":"m.s-1","parameterCategory":1,"la1":30.2991,"la2":30.254,"lo1":-89.0895,"lo2":-89.0444,"dy":0.0017,"dx":0.0017,"nx":28,"ny":28,"refTime":"2023-11-03T09:00:00:Z","depth":0,"parameterNumber":3,"parameterNumberName":"V-component_of_WINDS"},"data":[0,0,0,0,0,0,0,0,0,0,0,0,0,0,0,0,0,0,0,0,0,0,0,0,0,0,0,0,0,0,0,0,0,0,0,0,0,0,0,0,0,0,0,0,0,0,0,0,0,0,0,0,0,0,0,0,0,0,0.1343,0.1342,0,0.1247,0.1246,0.1245,0.1167,0.1166,0.1166,0.1165,0.1063,0.1061,0.1059,0,0,0,0,0,0,0,0,0,0,0,0,0,0.1455,0.1453,0.1343,0.1342,0.134,0.1247,0.1246,0.1245,0.1167,0.1166,0.1165,0.1165,0.1063,0.1061,0.1059,0,0,0,0,0,0,0,0,0,0,0,0,0,0.1387,0.1453,0.1343,0.1291,0.1285,0.1248,0.1246,0.1244,0.1168,0.1166,0.1165,0.1164,0.1064,0.1061,0.1058,0.1064,0,0,0.1049,0.1048,0,0,0,0,0,0,0,0,0.1391,0.1383,0.13,0.1294,0.1288,0.1218,0.1248,0.1184,0.1168,0.1212,0.1165,0.1164,0.1115,0.1108,0.1092,0.1059,0.1055,0.1049,0.1047,0.1046,0.1045,0,0,0,0,0,0,0,0.1396,0.1387,0.1305,0.1298,0.1291,0.1271,0.126,0.1235,0.1171,0.1208,0.1202,0.1192,0.1112,0.1095,0.1089,0.1053,0.1049,0.1046,0.1045,0.1043,0.1019,0.102,0,0,0,0,0,0,0.1409,0.1391,0.1308,0.1302,0.1338,0.127,0.1258,0.1242,0.1171,0.116,0.1193,0.1189,0.1101,0.1093,0.1086,0.1087,0.1046,0.1043,0.1041,0.1018,0.1019,0.1021,0,0,0,0,0,0,0.1412,0.1403,0.1312,0.1345,0.1332,0.1269,0.1252,0.124,0.1224,0.116,0.1148,0.1189,0.11,0.109,0.107,0.1082,0.1042,0.1039,0.1017,0.1018,0.102,0.1091,0,0,0,0,0,0,0.1416,0.1404,0.1406,0.1346,0.1331,0.1299,0.1252,0.1239,0.122,0.1213,0.1153,0.1142,0.1098,0.1075,0.1067,0.1078,0.1037,0.1015,0.1017,0.102,0.1087,0.1095,0.1101,0,0,0,0,0,0.142,0.1429,0.1407,0.1397,0.1332,0.13,0.1291,0.1242,0.1221,0.1222,0.1181,0.1143,0.1083,0.1074,0.1064,0.1074,0.1014,0.1017,0.1019,0.1084,0.1093,0.1101,0,0,0,0,0,0,0.1491,0.142,0.1395,0.1385,0.1349,0.1287,0.1287,0.1253,0.1222,0.1217,0.1156,0.1143,0.113,0.11,0.1091,0.1075,0.1043,0.1044,0.1096,0.1104,0.1111,0.1118,0.1034,0,0,0,0,0,0.1506,0.1487,0.1425,0.1422,0.1406,0.135,0.1334,0.13,0.126,0.1244,0.1201,0.1163,0.1135,0.1118,0.1089,0.1083,0.1068,0.1085,0.1092,0.1098,0.1099,0.1093,0.11,0.1029,0.1029,0.1029,0,0,0.1535,0.1494,0.1485,0.1435,0.1404,0.1385,0.1337,0.1319,0.1304,0.124,0.122,0.1188,0.114,0.1128,0.112,0.1102,0.1116,0.1101,0.1107,0.1104,0.1097,0.1103,0.1109,0.1031,0.1031,0.103,0,0,0.1579,0.1547,0.1541,0.1511,0.1464,0.1427,0.1426,0.1369,0.1346,0.1324,0.1277,0.1257,0.121,0.1179,0.1157,0.1191,0.1155,0.1183,0.122,0.1215,0.1221,0.1225,0.1237,0.1242,0.1185,0.1185,0.1185,0,0.1621,0.1592,0.1541,0.1526,0.1505,0.1449,0.1442,0.1415,0.1361,0.1347,0.1329,0.127,0.1234,0.1213,0.1222,0.1206,0.1202,0.1189,0.1224,0.1228,0.1232,0.1242,0.1247,0.1189,0.1188,0.1188,0.1187,0,0.1646,0.1626,0.1627,0.1578,0.1557,0.1546,0.1493,0.1478,0.1446,0.1411,0.139,0.1345,0.1306,0.1299,0.1267,0.1274,0.1264,0.1236,0.1202,0.1243,0.1252,0.1256,0.1194,0.1193,0.1191,0.1191,0,0,0.173,0.1655,0.1656,0.1634,0.1579,0.1562,0.1549,0.1512,0.15,0.1465,0.1452,0.1414,0.1388,0.1363,0.1327,0.1323,0.1352,0.1295,0.1293,0.1307,0.1357,0.1378,0.1384,0.1329,0.1329,0.133,0.1361,0,0.1765,0.1739,0.1694,0.1682,0.1663,0.161,0.1598,0.1563,0.153,0.1508,0.147,0.1445,0.1412,0.1397,0.1391,0.135,0.1362,0.1347,0.1314,0.1314,0.1327,0.1389,0.1411,0.1442,0.1364,0.1365,0.1365,0,0.1802,0.1772,0.1759,0.1706,0.1697,0.1687,0.165,0.163,0.1589,0.1565,0.1539,0.1499,0.1481,0.1452,0.1425,0.1417,0.1401,0.1379,0.1379,0.1373,0.1341,0.1384,0.1451,0.1456,0.137,0.1369,0.1369,0,0.1865,0.1821,0.1807,0.179,0.1728,0.1723,0.1697,0.1654,0.1636,0.1603,0.159,0.1556,0.1537,0.151,0.1463,0.1446,0.1441,0.1408,0.142,0.1421,0.1421,0.1421,0.1486,0.1412,0.1412,0.1412,0.1411,0,0.1908,0.1902,0.1835,0.1827,0.1818,0.1766,0.1759,0.1727,0.1691,0.1674,0.1626,0.1611,0.155,0.1528,0.149,0.1474,0.1466,0.1445,0.1435,0.1449,0.1452,0.1437,0.1433,0.1413,0.1412,0.1412,0.1412,0,0.1976,0.1932,0.1913,0.1857,0.1843,0.1839,0.1791,0.178,0.1745,0.1725,0.1717,0.1661,0.1633,0.1583,0.154,0.1515,0.1506,0.1489,0.152,0.1514,0.1529,0.1528,0.1585,0.159,0.1515,0.1515,0.1516,0,0.2007,0.2001,0.1945,0.1932,0.1908,0.1887,0.1868,0.1817,0.1799,0.1752,0.1747,0.1716,0.1688,0.1645,0.1599,0.1566,0.1548,0.157,0.1542,0.1557,0.1547,0.1548,0.1547,0.1576,0.1577,0.1578,0.1579,0,0.2065,0.2044,0.2019,0.1988,0.1967,0.1939,0.1909,0.19,0.1841,0.1824,0.1795,0.1774,0.1731,0.17,0.1661,0.1632,0.1596,0.1589,0.1589,0.1603,0.1622,0.1612,0.1537,0.1587,0.1586,0.1586,0.1585,0.1585,0.2115,0.2108,0.2068,0.2042,0.2014,0.1987,0.1975,0.1939,0.1915,0.1877,0.1848,0.1822,0.178,0.1724,0.1698,0.1676,0.1659,0.166,0.166,0.1662,0.1667,0.1626,0.1668,0.1668,0.1668,0.1667,0.1667,0,0.2171,0.2143,0.212,0.208,0.206,0.203,0.1994,0.1979,0.1957,0.1923,0.1897,0.1864,0.1834,0.1787,0.1753,0.1744,0.1727,0.1737,0.1737,0.1731,0.1684,0.1687,0.1752,0.1752,0.1752,0.1752,0.1752,0.1752,0.2197,0.2183,0.2157,0.2129,0.2101,0.2076,0.2059,0.2033,0.2005,0.1972,0.1947,0.1918,0.1878,0.1841,0.1811,0.1798,0.1787,0.1803,0.1785,0.1742,0.1734,0.1726,0.1728,0.1801,0.1801,0.1832,0.1833,0.1833]}]]